1st Responders/1st Detectors/Storm Spotters Weather Summary for Jackson County, KY

Forecast Maps


Reg. NEXRAD Animation


National Fire Danger: Day 1 & 2 Map

Current NWS Watch/Warnings

SPC Convective Day 1 Outlook


Day 2 Outlook

(Click images to enlarge|Page will refresh every 5 minutes)
UK Ag. Weather Center Desktop Severe Weather Service[HERE]
Jackson County, KY Hazardous Weather Outlook Webcast
(9 AM to 9 PM Mon-Fri)
[Fast]
[Dial-up]


UKAWC 1st Detectors/1st Responders Precision Weather Forecast For JACKSON County, Kentucky
(based on the NWS County Digital Forecast)

ISSUED AT 08:00 UTC ON SUNDAY SEP 15 2019
DAY SUNDAY
EDT 3HR 5A 6A 7A 8A 9A 10A 11A NOON 1P 2P 3P 4P 5P 6P 7P
MAX/MIN -- -- -- 56° -- -- -- -- -- -- -- -- -- -- 88°
TEMP 58° 56° 56° 58° 63° 68° 74° 79° 81° 85° 88° 88° 88° 85° 81°
SKY COVER 28% 22% 15% 8% 6% 4% 2% 2% 1% 1% 1% 1% 1% 1% 1%
Clouds
DEW PT 54° 54° 54° 54° 56° 56° 56° 54° 54° 52° 49° 49° 49° 52° 54°
RH 86% 89% 89% 83% 80% 65% 55% 44% 38% 32% 27% 26% 27% 32% 39%
POP 12HR -- -- -- 0% -- -- -- -- -- -- -- -- -- -- --
RAIN/SNOW (liq.equ) -- -- -- 0.00in -- -- -- -- -- 0.00in -- -- -- -- --
SNOWFALL -- -- -- 0in -- -- -- -- -- 0in -- -- -- -- --
WIND SPEED(MPH) 5 5 2 2 5 5 5 2 2 1 1 1 2 1 1
WIND Gust(MPH) 5 5 5 5 5 6 7 5 5 5 2 2 2 2 2
WIND DIR NE NE E E E E E E E E E E N N NE
DEW Lgt Dew Lgt Dew Mod Dew Mod Dew -- -- -- -- -- -- -- -- -- -- --
HeatIndex 58 56 56 58 63 68 74 79 81 83 85 86 85 83 80
Rain Showers -- -- -- -- -- -- -- -- -- -- -- -- -- -- --
Thunder Storm -- -- -- -- -- -- -- -- -- -- -- -- -- -- --
WIND CHILL -- -- -- -- -- -- -- -- -- -- -- -- -- -- --
SPRAY COND
DRY COND
LIVESTOCK HEATSTRESS 58.06 56.17 56.17 58.07 62.54 66.23 70.24 72.78 73.43 75.20 76.28 76.12 76.28 75.20 73.55



DAY MONDAY TUESDAY WEDNESDAY THURSDAY FRIDAY SATURDAY
EDT 6HR 8P 9P 10P 11P MIDN 1A 2A 3A 4A 5A 6A 7A 8A 9A 10A 11A NOON 1P 2P 3P 4P 5P 8P 11P 2A 5A 8A 11A 2P 5P 8P 2A 8A 2P 8P 2A 8A 2P 8P 2A 8A 2P 8P 2A 8A 2P 8P
MAX/MIN -- -- -- -- -- -- -- -- -- -- -- -- 61° -- -- -- -- -- -- -- -- 90° -- -- -- -- 63° -- -- 83° -- -- 59° 86° -- -- 61° 86° -- -- 63° 85° -- -- 61° 88° --
TEMP 76° 72° 70° 67° 67° 65° 65° 65° 63° 63° 61° 61° 61° 65° 72° 79° 83° 85° 88° 88° 90° 88° 79° 70° 67° 65° 63° 74° 83° 83° 74° 65° 61° 85° 76° 65° 63° 85° 77° 67° 63° 85° 76° 67° 63° 86° 74°
SKY COVER 2% 2% 2% 3% 4% 6% 8% 7% 6% 6% 6% 7% 4% 4% 4% 12% 20% 28% 38% 40% 43% 43% 45% 38% 24% 32% 32% 37% 33% 31% 24% 17% 11% 11% 12% 22% 14% 30% 17% 26% 27% 29% 14% 23% 24% 27% 33%
Clouds
DEW PT 54° 56° 54° 56° 54° 54° 54° 54° 54° 54° 54° 54° 56° 56° 58° 58° 58° 58° 58° 58° 58° 59° 63° 65° 65° 63° 63° 65° 63° 61° 61° 61° 59° 61° 61° 59° 58° 61° 61° 59° 58° 61° 61° 61° 58° 58° 61°
RH 48% 55% 59% 65% 65% 67% 67% 67% 70% 72% 75% 80% 84% 75% 61% 50% 44% 40% 37% 36% 35% 38% 58% 81% 92% 93% 100% 70% 51% 47% 63% 84% 96% 44% 58% 81% 87% 42% 58% 75% 83% 44% 59% 81% 86% 38% 62%
POP 12HR 0% -- -- -- -- -- -- -- -- -- -- -- 0% -- -- -- -- -- -- -- -- -- 18% -- -- -- 18% -- -- -- 1% -- 1% -- 2% -- 2% -- 4% -- 4% -- 6% -- 6% -- 6%
RAIN/SNOW (liq.equ) 0.00in -- -- -- -- -- 0.00in -- -- -- -- -- 0.00in -- -- -- -- -- 0.00in -- -- -- 0.00in -- 0.00in -- 0.00in -- 0.00in -- 0.00in -- -- -- -- -- -- -- -- -- -- -- -- -- -- -- --
SNOWFALL 0in -- -- -- -- -- 0in -- -- -- -- -- 0in -- -- -- -- -- 0in -- -- -- 0in -- 0in -- 0in -- 0in -- 0in -- -- -- -- -- -- -- -- -- -- -- -- -- -- -- --
WIND SPEED(MPH) 1 1 0 0 0 1 1 1 1 1 1 1 0 0 0 1 1 2 2 2 5 5 1 1 0 0 0 2 6 6 2 1 1 5 1 1 1 6 1 1 1 2 1 0 0 5 0
WIND DIR NE NE E S S S SW SW SW SW W W N NW NW NW NW NW NW NW NW NW N NE NE NE NE NE NE NE NE E E E E SE S S S S S W E S S W W
HeatIndex 76 72 70 67 67 65 65 65 63 63 61 61 61 65 72 79 83 85 87 88 89 88 79 70 67 65 63 74 84 83 74 65 61 85 76 65 63 86 77 67 63 85 76 67 63 86 74
Rain Showers -- -- -- -- -- -- -- -- -- -- -- -- -- -- -- -- -- -- Slight Chance Slight Chance Slight Chance Slight Chance Slight Chance Slight Chance -- -- -- -- -- -- -- -- -- -- -- -- -- -- -- -- -- -- -- -- -- -- --
Thunder Storm -- -- -- -- -- -- -- -- -- -- -- -- -- -- -- -- -- -- Slight Chance Slight Chance Slight Chance Slight Chance Slight Chance Slight Chance -- -- -- -- -- -- -- -- -- -- -- -- -- -- -- -- -- -- -- -- -- -- --
WIND CHILL -- -- -- -- -- -- -- -- -- -- -- -- -- -- -- -- -- -- -- -- -- -- -- -- -- -- -- -- -- -- -- -- -- -- -- -- -- -- -- -- -- -- -- -- -- -- --
SPRAY COND
DRY COND
LIVESTOCK HEATSTRESS 71.08 68.73 67.47 65.42 65.42 63.87 63.87 63.87 62.31 62.35 60.70 60.76 60.81 64.15 69.17 73.44 75.55 76.35 77.88 77.72 78.85 78.04 74.33 68.83 66.64 64.76 63.00 71.49 76.48 75.95 70.91 64.45 60.95 76.93 72.03 64.35 62.70 76.64 72.80 65.87 62.61 76.93 72.12 66.14 62.68 76.72 70.82

Click on individual weather variable above in left-hand column (ie., TEMP, RH, QPF 12HR) to view state forecast maps






NWS 48 Hr. Forecast Maps,

Regional Hourly Observations For JACKSON County, Kentucky
Issued at 400 AM EDT SUN SEP 15 2019
SOUTHEAST KENTUCKY
  
CITY           SKY/WX    TMP DP  RH WIND       PRES   REMARKS
JACKSON        FAIR      64  54  69 CALM      30.24S                  
LONDON         FAIR      59  55  87 CALM      30.22F                  
SOMERSET       FAIR      59  50  72 CALM      30.22F                  
MIDDLESBORO    FAIR      59  59 100 CALM      30.24S                  
MONTICELLO     FAIR      54  54 100 VRB7      30.23F                  


Current NOWCAST not available:
Nowcasts are not issued routinely during fair weather. Only when
precipitation or other significant weather is occuring in this county will these
forecasts be issued. Currently, there is no short term forecast in effect.


Fire Weather Forecast For JACKSON County, KY
Provided by the National Weather Service:

Issued at: Sun Sep 15 04:05:01 EDT 2019

557 AM EDT Sat Sep 14 2019

                      Today        Tonight      Sun          

Cloud Cover           PCldy        MClear       Clear        
Chance precip (%)     0            0            0            
Precip type           None         None         None         
Temp (24H TREND)      82-87 (-6)   52-63 (-4)   85-90        
Rh % (24H TREND)      38-51 (+13)  76-100 (+2)  27-32        
20ftwnd-AM(mph)       Lgt/Var                   Lgt/Var      
20ftwnd-PM(mph)       NW 3-7       Lgt/Var      NE 2-6       
Precip duration                                              
Precip begin                                                 
Precip end                                                   
Precip amount         0.00         0.00         0.00         
LAL                   1            1            1            
Haines Index (MID)    3                         5            
Mixing hgt(ft-AGL)    4800                      3400         
Transport wnd (mph)   NW  8                     NE  5        
Vent rate (kt-ft)     34368                     15062        
ADI Early             27 Fair      2 Very Poor  19 Gen Poor  
ADI Late              32 Fair      4 Very Poor  20 Gen Poor  
Max LVORI Early       9            5            6            
Max LVORI Late        3            7            2            

REMARKS...RANGES OF MIN T EXCEEDING 8 DEGREES & RANGES OF MAX RH        
EXCEEDING 10% INDICATE THE LIKELIHOOD OF THERMAL BELTS. ADI IS        
ATMOSPHERIC DISPERSION INDEX BY LAVDAS. DISPERSION INDEX IS        
MAGNITUDE OF VENT RATE DIVIDED BY 1000.


SPC's Fire Weather Web Tool (Excellent!), SPC's Fire Weather Outlooks, NWS Fire Weather WEB, Fire Danger Class Map,
Keetch-Byram Drought Index, ROMAN Web, Haines Index ,
WFAS's 10-hr Dead Fuel Moist., WFAS's 100-hr Dead Fuel Moist., Probablity of Ignition, Visual blackness Map, Palmer Drought Index, HPC's Rainfall Forecast Maps


Hazardous Weather Outlook For JACKSON County, Kentucky
334 PM EDT Sat Sep 14 2019

 DAY ONE  Tonight.

No hazardous weather is expected at this time.

 DAYS TWO THROUGH SEVEN  Sunday through Friday.

There is a slight chance of thunderstorms on Monday and Monday
evening.

 SPOTTER INFORMATION STATEMENT  

Spotter activation is not anticipated.

Latest JACKSON County, Kentucky Watches, Warnings and Advisories.
Additional Drought Info.: UKAWC Drought Page, Kentucky Drought Watch


7-Day Forecast For JACKSON County, KY

REST OF TONIGHT
Mostly clear. Patchy valley fog near dawn. Lows in the mid 50s. Light winds.

SUNDAY
Warm, sunny. Patchy valley fog early. Highs in the upper 80s. Light winds.

SUNDAY NIGHT
Clear. Patchy valley fog near dawn. Lows in the upper 50s. Light winds.

MONDAY
Sunny. A 20 percent chance of showers and thunderstorms in the afternoon. Highs around 90. Light winds.

MONDAY NIGHT
Partly cloudy. A 20 percent chance of showers and thunderstorms in the evening. Patchy valley fog through the night. Lows in the lower 60s. Light winds.

TUESDAY
Mostly sunny. Highs in the mid 80s.

TUESDAY NIGHT
Mostly clear. Lows around 60.

WEDNESDAY
Sunny. Highs in the upper 80s.

WEDNESDAY NIGHT
Mostly clear. Lows in the lower 60s.

THURSDAY
Sunny. Highs in the upper 80s.

THURSDAY NIGHT
Mostly clear. Lows in the lower 60s.

FRIDAY
Mostly sunny. Highs in the upper 80s.

FRIDAY NIGHT
Mostly clear. Lows in the lower 60s.

SATURDAY
Mostly sunny. Highs in the upper 80s.

Ag Weather Center, Department of Biosystems & Agricultural Engineering, University of Kentucky